Change the Weather History Date:

Monday, October 22, 2012

  Actual Average Record
Temperature  
Mean Temperature 29 °F 38 °F  
Max Temperature 34 °F 52 °F 76 °F (2003)
Min Temperature 23 °F 24 °F 12 °F (1996)
Degree Days  
Heating Degree Days 36 27  
Month to date heating degree days 486 522  
Since 1 July heating degree days 810 1287  
Cooling Degree Days 0 0  
Month to date cooling degree days 0 0  
Year to date cooling degree days 172 25  
Moisture  
Dew Point 28 °F    
Average Humidity 88    
Maximum Humidity 100    
Minimum Humidity 75    
Precipitation  
Precipitation 0.35 in 0.05 in 1.06 in (1931)
Month to date precipitation 1.53 0.85  
Year to date precipitation 19.84 14.77  
Sea Level Pressure  
Sea Level Pressure 29.62 in    
Wind  
Wind Speed 4 mph (SSE)    
Max Wind Speed 12 mph    
Max Gust Speed 16 mph    
Visibility 4 miles    
Events Fog , Rain , Snow    
T = Trace of Precipitation, MM = Missing Value Source: NWS Daily Summary

Daily Weather History Graph

Daily Weather History Graph

Search for Another Location

Airport or City:

Trip Planner

Search our weather history database for the weather conditions in past years. The results will help you decide how hot, cold, wet, or windy it might be!

Date:

Astronomy

Oct. 22, 2012 Rise Set
Actual Time 8:09 AM MDT 6:46 PM MDT
Civil Twilight 7:39 AM MDT 7:16 PM MDT
Nautical Twilight 7:05 AM MDT 7:50 PM MDT
Astronomical Twilight 6:31 AM MDT 8:24 PM MDT
Moon 3:13 PM MDT (10/22) 12:44 AM MDT (10/22)
Length of Visible Light 11h 36m
Length of Day
10h 37m
First Quarter, 57% of the Moon is Illuminated
Oct 22
First Quarter
Oct 29
Full
Nov 6
Last Quarter
Nov 13
New
Nov 20
First Quarter

Hourly Weather History & Observations

Time (MDT) Temp. Windchill Dew Point Humidity Pressure Visibility Wind Dir Wind Speed Gust Speed Precip Events Conditions
12:51 AM 26.1 °F - 19.9 °F 78% 29.83 in 10.0 mi Calm Calm - N/A   Clear
1:51 AM 27.0 °F - 19.9 °F 75% 29.81 in 10.0 mi Calm Calm - N/A   Clear
2:51 AM 26.1 °F - 21.9 °F 84% 29.78 in 10.0 mi Calm Calm - N/A   Clear
3:51 AM 26.1 °F - 21.0 °F 81% 29.77 in 10.0 mi Calm Calm - N/A   Clear
4:51 AM 25.0 °F - 19.9 °F 81% 29.75 in 10.0 mi Calm Calm - N/A   Clear
5:51 AM 26.1 °F - 19.9 °F 78% 29.72 in 10.0 mi Calm Calm - N/A   Clear
6:51 AM 25.0 °F - 19.0 °F 78% 29.70 in 10.0 mi Calm Calm - N/A   Clear
7:51 AM 27.0 °F - 19.9 °F 75% 29.70 in 10.0 mi Calm Calm - N/A   Mostly Cloudy
9:07 AM 28.4 °F - 23.0 °F 80% 29.63 in 2.0 mi Calm Calm - 0.00 in Snow Light Snow
9:16 AM 28.4 °F 24.6 °F 24.8 °F 86% 29.63 in 8.0 mi West 3.5 mph - 0.00 in Snow Light Snow
9:51 AM 30.9 °F 26.2 °F 26.1 °F 82% 29.66 in 7.0 mi North 4.6 mph - 0.01 in Snow Light Snow
10:51 AM 30.9 °F 26.2 °F 27.0 °F 85% 29.66 in 5.0 mi SSW 4.6 mph - 0.00 in Snow Light Snow
11:11 AM 30.2 °F - 28.4 °F 93% 29.59 in 2.5 mi Calm Calm - 0.00 in Snow Light Snow
11:19 AM 30.2 °F - 28.4 °F 93% 29.59 in 2.0 mi Calm Calm - 0.00 in Snow Light Snow
11:27 AM 30.2 °F - 28.4 °F 93% 29.59 in 1.2 mi Calm Calm - 0.00 in Snow Light Snow
11:35 AM 30.2 °F - 28.4 °F 93% 29.59 in 0.8 mi Calm Calm - 0.01 in Snow Light Snow
11:51 AM 30.9 °F - 30.0 °F 96% 29.66 in 0.5 mi Calm Calm - 0.02 in Fog , Snow Snow
12:13 PM 30.2 °F 25.4 °F 30.2 °F 100% 29.58 in 0.8 mi South 4.6 mph - N/A Snow Light Snow
12:21 PM 30.2 °F 24.3 °F 30.2 °F 100% 29.58 in 0.8 mi South 5.8 mph - 0.02 in Snow Light Snow
12:42 PM 30.2 °F - 30.2 °F 100% 29.58 in 0.5 mi Calm Calm - 0.05 in Fog , Snow Snow
12:51 PM 30.9 °F - 30.0 °F 96% 29.64 in 0.5 mi Calm Calm - 0.06 in Fog , Snow Snow
1:07 PM 30.2 °F - 30.2 °F 100% 29.56 in 0.5 mi Calm Calm - 0.01 in Fog , Snow Snow
1:27 PM 32.0 °F - 30.2 °F 93% 29.56 in 1.0 mi Calm Calm - 0.03 in Snow Light Snow
1:48 PM 32.0 °F 28.7 °F 30.2 °F 93% 29.55 in 1.2 mi South 3.5 mph - 0.04 in Snow Light Snow
1:49 PM 32.0 °F 28.7 °F 30.9 °F 96% 29.61 in 1.2 mi South 3.5 mph - 0.04 in Snow Light Snow
2:02 PM 32.0 °F 28.7 °F 30.2 °F 93% 29.55 in 1.8 mi SSW 3.5 mph - 0.01 in Snow Light Snow
2:11 PM 32.0 °F 28.7 °F 30.2 °F 93% 29.55 in 1.2 mi South 3.5 mph - 0.01 in Snow Light Snow
2:17 PM 32.0 °F 28.7 °F 30.2 °F 93% 29.55 in 1.0 mi South 3.5 mph - 0.01 in Snow Light Snow
2:27 PM 32.0 °F 27.5 °F 30.2 °F 93% 29.55 in 0.8 mi South 4.6 mph - 0.02 in Snow Light Snow
2:33 PM 32.0 °F 28.7 °F 30.2 °F 93% 29.55 in 0.5 mi South 3.5 mph - 0.03 in Fog , Snow Snow
2:51 PM 32.0 °F 27.5 °F 30.9 °F 96% 29.62 in 1.0 mi SE 4.6 mph - 0.04 in Snow Light Snow
2:59 PM 33.8 °F 28.6 °F 30.2 °F 87% 29.56 in 1.5 mi SE 5.8 mph - 0.00 in Snow Light Snow
3:08 PM 33.8 °F 28.6 °F 32.0 °F 93% 29.56 in 1.8 mi ESE 5.8 mph - 0.01 in Snow Light Snow
3:14 PM 33.8 °F 28.6 °F 32.0 °F 93% 29.56 in 3.0 mi ESE 5.8 mph - 0.01 in Snow Light Snow
3:34 PM 33.8 °F 27.0 °F 30.2 °F 87% 29.56 in 7.0 mi SE 8.1 mph - 0.01 in Snow Light Snow
3:58 PM 33.8 °F 25.8 °F 32.0 °F 93% 29.56 in 8.0 mi SE 10.4 mph - 0.00 in Snow Light Snow
4:34 PM 33.8 °F 28.6 °F 32.0 °F 93% 29.55 in 10.0 mi SE 5.8 mph - 0.00 in Rain Light Rain
4:48 PM 33.8 °F 27.0 °F 32.0 °F 93% 29.56 in 2.5 mi SE 8.1 mph - 0.01 in Snow Light Snow
4:51 PM 33.1 °F 28.7 °F 32.0 °F 96% 29.63 in 2.5 mi SSE 4.6 mph - 0.02 in Snow Light Snow
5:03 PM 33.8 °F 29.6 °F 30.2 °F 87% 29.56 in 1.2 mi SSE 4.6 mph - 0.01 in Snow Light Snow
5:06 PM 33.8 °F 29.6 °F 30.2 °F 87% 29.56 in 1.0 mi South 4.6 mph - 0.01 in Snow Light Snow
5:16 PM 33.8 °F 29.6 °F 30.2 °F 87% 29.55 in 1.8 mi SSE 4.6 mph - 0.02 in Snow Light Snow
5:26 PM 32.0 °F 27.5 °F 30.2 °F 93% 29.55 in 0.8 mi SSE 4.6 mph - 0.03 in Snow Light Snow
5:30 PM 32.0 °F 28.7 °F 30.2 °F 93% 29.55 in 1.0 mi SSE 3.5 mph - 0.04 in Snow Light Snow
5:38 PM 32.0 °F 28.7 °F 32.0 °F 100% 29.55 in 1.8 mi SSE 3.5 mph - N/A Snow Light Snow
5:51 PM 32.0 °F 24.2 °F 30.9 °F 96% 29.63 in 1.2 mi South 9.2 mph - 0.05 in Snow Light Snow
5:59 PM 32.0 °F 23.0 °F 30.2 °F 93% 29.58 in 0.8 mi SW 11.5 mph - 0.02 in Snow Light Snow
6:10 PM 32.0 °F 24.2 °F 30.2 °F 93% 29.58 in 0.2 mi WSW 9.2 mph - 0.07 in Fog , Snow Heavy Snow
6:19 PM 32.0 °F 27.5 °F 32.0 °F 100% 29.59 in 0.5 mi South 4.6 mph - 0.09 in Fog , Snow Snow
6:34 PM 32.0 °F 24.8 °F 30.2 °F 93% 29.60 in 1.0 mi SSE 8.1 mph - 0.10 in Snow Light Snow
6:38 PM 33.8 °F 27.0 °F 30.2 °F 87% 29.60 in 2.5 mi SSE 8.1 mph - 0.10 in Snow Light Snow
6:51 PM 32.0 °F 27.5 °F 30.9 °F 96% 29.67 in 1.8 mi South 4.6 mph - 0.10 in Snow Light Snow
6:55 PM 32.0 °F 27.5 °F 30.2 °F 93% 29.60 in 3.0 mi SE 4.6 mph - N/A Snow Light Snow
7:35 PM 33.8 °F 25.8 °F 30.2 °F 87% 29.61 in 10.0 mi ESE 10.4 mph - 0.00 in   Overcast
7:51 PM 32.0 °F 24.2 °F 30.0 °F 92% 29.69 in 10.0 mi SE 9.2 mph - 0.00 in   Overcast
8:45 PM 32.0 °F 24.2 °F 30.2 °F 93% 29.65 in 10.0 mi SSE 9.2 mph - N/A   Mostly Cloudy
9:51 PM 30.9 °F 23.5 °F 27.0 °F 85% 29.72 in 10.0 mi SSE 8.1 mph - N/A   Clear
10:51 PM 30.9 °F 22.8 °F 26.1 °F 82% 29.74 in 10.0 mi SE 9.2 mph - N/A   Partly Cloudy
11:51 PM 28.0 °F 24.2 °F 24.1 °F 85% 29.75 in 10.0 mi South 3.5 mph - N/A   Clear